GW3250 Weather Reports


Display with metric or nautical units.
time (UTC)temp
F
wind
direction
speed
MPH
gust
MPH
rain 1hr
in
rain 24hr
in
rain mn
in
humidity
%
barometer
mb
20260505230631 74 204 0.0 0.0 0.00 0.00 0.00 43 1005.3
20260505230127 74 241 2.0 3.0 0.00 0.00 0.00 43 1005.2
20260505225623 75 216 1.0 2.0 0.00 0.00 0.00 43 1005.2
20260505225120 75 317 4.0 6.0 0.00 0.00 0.00 41 1005.2
20260505224617 75 243 2.0 3.0 0.00 0.00 0.00 41 1005.0
20260505224114 74 278 5.0 7.0 0.00 0.00 0.00 42 1005.1
20260505223611 74 200 2.0 2.0 0.00 0.00 0.00 44 1005.1
20260505223107 74 224 4.0 6.0 0.00 0.00 0.00 41 1004.8
20260505222604 74 248 3.0 4.0 0.00 0.00 0.00 41 1004.9
20260505222100 75 218 4.0 7.0 0.00 0.00 0.00 41 1005.0
20260505221557 75 206 1.0 1.0 0.00 0.00 0.00 42 1004.8
20260505221053 75 231 5.0 7.0 0.00 0.00 0.00 41 1004.8
20260505220551 75 215 0.0 1.0 0.00 0.00 0.00 40 1004.9
20260505220048 76 210 5.0 7.0 0.00 0.00 0.00 40 1004.8
20260505215546 76 83 2.0 2.0 0.00 0.00 0.00 37 1004.9
20260505215044 76 239 1.0 2.0 0.00 0.00 0.00 37 1005.0
20260505214542 76 219 6.0 8.0 0.00 0.00 0.00 36 1004.7
20260505214038 75 187 3.0 4.0 0.00 0.00 0.00 36 1005.1
20260505213536 76 194 4.0 6.0 0.00 0.00 0.00 35 1004.7
20260505213032 76 179 1.0 2.0 0.00 0.00 0.00 37 1004.5
20260505212529 76 242 5.0 6.0 0.00 0.00 0.00 36 1004.5
20260505212026 76 214 4.0 6.0 0.00 0.00 0.00 35 1004.4
20260505211523 76 227 6.0 8.0 0.00 0.00 0.00 36 1004.3
20260505211020 76 250 3.0 4.0 0.00 0.00 0.00 35 1004.5
20260505210516 76 106 4.0 7.0 0.00 0.00 0.00 35 1004.4
20260505210014 76 207 2.0 4.0 0.00 0.00 0.00 35 1004.4
20260505205512 77 221 3.0 6.0 0.00 0.00 0.00 36 1004.4
20260505205009 77 353 4.0 4.0 0.00 0.00 0.00 34 1004.4
20260505204506 78 200 5.0 6.0 0.00 0.00 0.00 34 1003.9
20260505204003 79 104 2.0 2.0 0.00 0.00 0.00 35 1003.9
20260505203459 80 175 6.0 9.0 0.00 0.00 0.00 32 1003.9
20260505202956 80 211 3.0 4.0 0.00 0.00 0.00 32 1004.3
20260505202453 78 4 4.0 6.0 0.00 0.00 0.00 34 1004.0
20260505201949 78 106 5.0 7.0 0.00 0.00 0.00 33 1003.8
20260505201446 80 285 6.0 8.0 0.00 0.00 0.00 32 1003.9
20260505200944 80 185 6.0 10.0 0.00 0.00 0.00 32 1004.0
20260505200441 80 128 5.0 7.0 0.00 0.00 0.00 32 1004.3
20260505195937 82 200 8.0 13.0 0.00 0.00 0.00 31 1004.2
20260505195434 82 215 5.0 8.0 0.00 0.00 0.00 32 1004.4
20260505194931 82 183 3.0 3.0 0.00 0.00 0.00 33 1004.2
20260505194429 81 201 3.0 4.0 0.00 0.00 0.00 34 1004.6
20260505193928 80 180 2.0 3.0 0.00 0.00 0.00 33 1004.7
20260505193426 82 233 5.0 7.0 0.00 0.00 0.00 32 1004.6
20260505192924 81 186 3.0 3.0 0.00 0.00 0.00 34 1004.7
20260505192422 81 10 5.0 8.0 0.00 0.00 0.00 33 1004.7
20260505191919 79 166 2.0 4.0 0.00 0.00 0.00 33 1004.7
20260505191418 80 308 3.0 3.0 0.00 0.00 0.00 33 1004.7
20260505190915 79 230 5.0 11.0 0.00 0.00 0.00 33 1004.7
20260505190410 79 243 4.0 6.0 0.00 0.00 0.00 36 1004.9
20260505185905 80 205 6.0 10.0 0.00 0.00 0.00 34 1004.9
20260505185403 80 255 4.0 7.0 0.00 0.00 0.00 35 1004.9
20260505184858 79 190 6.0 9.0 0.00 0.00 0.00 37 1005.1
20260505184356 81 291 5.0 7.0 0.00 0.00 0.00 35 1005.3
20260505183853 80 252 4.0 6.0 0.00 0.00 0.00 34 1005.1
20260505183349 80 271 4.0 6.0 0.00 0.00 0.00 36 1005.4
20260505182846 81 254 4.0 7.0 0.00 0.00 0.00 33 1005.2
20260505182343 80 223 6.0 8.0 0.00 0.00 0.00 34 1005.5
20260505181840 81 253 4.0 6.0 0.00 0.00 0.00 34 1005.4
20260505181337 81 211 3.0 4.0 0.00 0.00 0.00 37 1005.2
20260505180833 79 183 6.0 7.0 0.00 0.00 0.00 36 1005.4
20260505180330 79 5 3.0 4.0 0.00 0.00 0.00 38 1005.2
20260505175826 80 274 5.0 6.0 0.00 0.00 0.00 39 1005.2
20260505175323 79 210 5.0 6.0 0.00 0.00 0.00 39 1005.5
20260505174819 79 209 7.0 8.0 0.00 0.00 0.00 39 1005.3
20260505174317 78 191 3.0 3.0 0.00 0.00 0.00 38 1005.3
20260505173813 80 262 6.0 7.0 0.00 0.00 0.00 37 1005.7
20260505173309 80 203 2.0 2.0 0.00 0.00 0.00 38 1005.4
20260505172807 80 237 2.0 3.0 0.00 0.00 0.00 37 1005.5
20260505172306 80 237 5.0 8.0 0.00 0.00 0.00 38 1005.6
20260505171758 80 201 3.0 4.0 0.00 0.00 0.00 37 1005.6
20260505171255 79 233 5.0 8.0 0.00 0.00 0.00 39 1005.8
20260505170752 79 208 4.0 7.0 0.00 0.00 0.00 40 1005.5
20260505170249 81 203 5.0 8.0 0.00 0.00 0.00 40 1005.5
20260505165744 78 244 2.0 3.0 0.00 0.00 0.00 42 1005.6
20260505165240 79 266 6.0 7.0 0.00 0.00 0.00 39 1005.7
20260505164736 78 213 3.0 4.0 0.00 0.00 0.00 41 1005.7
20260505164233 79 148 4.0 7.0 0.00 0.00 0.00 41 1005.9
20260505163732 79 207 2.0 4.0 0.00 0.00 0.00 42 1006.1
20260505163230 78 280 5.0 7.0 0.00 0.00 0.00 43 1006.0
20260505162727 78 225 0.0 1.0 0.00 0.00 0.00 46 1006.0
20260505162224 77 122 4.0 7.0 0.00 0.00 0.00 42 1006.3
20260505161720 78 58 2.0 4.0 0.00 0.00 0.00 44 1006.3
20260505161218 78 234 4.0 8.0 0.00 0.00 0.00 44 1006.4
20260505160715 77 223 3.0 4.0 0.00 0.00 0.00 45 1006.7
20260505160213 77 219 3.0 4.0 0.00 0.00 0.00 46 1006.6
20260505153152 75 197 2.0 3.0 0.00 0.00 0.00 46 1006.8
20260505152649 74 224 3.0 3.0 0.00 0.00 0.00 49 1007.0
20260505152145 74 181 3.0 6.0 0.00 0.00 0.00 49 1006.8
20260505151640 74 174 1.0 1.0 0.00 0.00 0.00 51 1007.2
20260505151138 74 218 3.0 4.0 0.00 0.00 0.00 50 1007.2
20260505150633 74 162 1.0 2.0 0.00 0.00 0.00 52 1006.9
20260505150131 73 266 3.0 4.0 0.00 0.00 0.00 50 1006.8
20260505140559 72 134 2.0 2.0 0.00 0.00 0.00 52 1007.5
20260505125013 66 106 1.0 2.0 0.00 0.00 0.00 63 1007.3
20260505124509 65 172 2.0 3.0 0.00 0.00 0.00 66 1007.3
20260505124006 65 201 1.0 1.0 0.00 0.00 0.00 66 1007.5
20260505123503 64 244 2.0 2.0 0.00 0.00 0.00 67 1007.6
20260505122958 63 327 3.0 6.0 0.00 0.00 0.00 68 1007.3
20260505122456 63 308 2.0 3.0 0.00 0.00 0.00 68 1007.6
20260505121953 62 229 1.0 1.0 0.00 0.00 0.00 71 1007.4
20260505121449 62 131 1.0 2.0 0.00 0.00 0.00 74 1007.4
20260505120945 61 3 2.0 3.0 0.00 0.00 0.00 74 1007.5
20260505120442 61 200 3.0 4.0 0.00 0.00 0.00 72 1007.4
20260505115941 61 162 1.0 1.0 0.00 0.00 0.00 74 1007.4
20260505115438 60 186 1.0 1.0 0.00 0.00 0.00 75 1007.2
20260505114936 60 232 3.0 3.0 0.00 0.00 0.00 73 1007.3
20260505114432 60 221 4.0 6.0 0.00 0.00 0.00 73 1007.3
20260505113928 60 223 2.0 4.0 0.00 0.00 0.00 74 1007.4
20260505113425 59 218 2.0 2.0 0.00 0.00 0.00 74 1007.4
20260505112920 59 213 1.0 1.0 0.00 0.00 0.00 77 1007.7
20260505112418 58 202 1.0 1.0 0.00 0.00 0.00 77 1007.3
20260505111914 57 197 0.0 1.0 0.00 0.00 0.00 78 1007.5
20260505111409 56 206 2.0 2.0 0.00 0.00 0.00 79 1007.4
20260505110906 56 184 0.0 0.0 0.00 0.00 0.00 80 1007.4
20260505110403 54 141 1.0 1.0 0.00 0.00 0.00 84 1007.2
20260505101833 52 133 0.0 1.0 0.00 0.00 0.00 89 1007.0
20260505101328 52 133 1.0 1.0 0.00 0.00 0.00 89 1007.2
20260505100824 54 154 1.0 1.0 0.00 0.00 0.00 88 1007.2
20260505100321 55 154 1.0 1.0 0.00 0.00 0.00 79 1007.2
20260505095817 52 156 2.0 2.0 0.00 0.00 0.00 89 1006.9
20260505095315 51 156 1.0 1.0 0.00 0.00 0.00 93 1006.9
20260505094810 51 156 1.0 1.0 0.00 0.00 0.00 94 1007.0
20260505094308 51 156 0.0 0.0 0.00 0.00 0.00 95 1007.0
20260505093803 51 156 1.0 1.0 0.00 0.00 0.00 96 1007.2
20260505093301 51 156 0.0 0.0 0.00 0.00 0.00 95 1007.0
20260505092757 51 156 0.0 1.0 0.00 0.00 0.00 95 1006.8
20260505092256 52 157 0.0 0.0 0.00 0.00 0.00 93 1006.8
20260505091753 53 155 1.0 1.0 0.00 0.00 0.00 89 1006.9
20260505091251 55 167 1.0 1.0 0.00 0.00 0.00 81 1006.9
20260505090748 55 238 3.0 4.0 0.00 0.00 0.00 72 1007.0
20260505090246 54 212 0.0 0.0 0.00 0.00 0.00 73 1006.7
20260505085743 54 212 0.0 0.0 0.00 0.00 0.00 72 1006.7
20260505085241 54 212 2.0 2.0 0.00 0.00 0.00 72 1006.6
20260505084738 55 212 0.0 0.0 0.00 0.00 0.00 71 1006.3
20260505084238 55 212 0.0 1.0 0.00 0.00 0.00 69 1006.6
20260505083734 55 212 0.0 1.0 0.00 0.00 0.00 70 1006.5
20260505083231 56 212 2.0 2.0 0.00 0.00 0.00 68 1006.3
20260505082726 56 213 1.0 1.0 0.00 0.00 0.00 66 1006.6
20260505082224 55 213 1.0 1.0 0.00 0.00 0.00 67 1006.4
20260505081720 55 213 0.0 0.0 0.00 0.00 0.00 71 1006.6
20260505081217 56 213 0.0 0.0 0.00 0.00 0.00 68 1006.3
20260505080714 56 213 0.0 0.0 0.00 0.00 0.00 66 1006.5
20260505080210 56 121 1.0 1.0 0.00 0.00 0.00 67 1006.3
20260505075706 56 108 1.0 2.0 0.00 0.00 0.00 66 1006.4
20260505075203 56 183 0.0 1.0 0.00 0.00 0.00 66 1006.6
20260505074700 56 144 1.0 2.0 0.00 0.00 0.00 66 1006.4
20260505074157 56 52 1.0 2.0 0.00 0.00 0.00 65 1006.5
20260505073655 57 51 1.0 1.0 0.00 0.00 0.00 65 1006.6
20260505073153 56 22 0.0 1.0 0.00 0.00 0.00 66 1006.6
20260505072648 56 22 1.0 1.0 0.00 0.00 0.00 65 1006.4
20260505072145 56 22 0.0 0.0 0.00 0.00 0.00 66 1006.4
20260505071640 56 359 0.0 0.0 0.00 0.00 0.00 66 1006.7
20260505071138 56 359 1.0 1.0 0.00 0.00 0.00 65 1006.6
20260505070635 56 359 0.0 0.0 0.00 0.00 0.00 64 1006.5
20260505070132 57 358 0.0 0.0 0.00 0.00 0.00 64 1006.4
20260505065627 57 87 1.0 2.0 0.00 0.00 0.00 62 1006.1
20260505065124 56 220 0.0 1.0 0.00 0.00 0.00 62 1006.3
20260505064621 57 245 0.0 1.0 0.00 0.00 0.00 63 1006.5
20260505064120 57 332 2.0 2.0 0.00 0.00 0.00 61 1006.5
20260505063617 57 183 1.0 2.0 0.00 0.00 0.00 61 1006.4
20260505063113 58 266 3.0 4.0 0.00 0.00 0.00 59 1006.4
20260505062609 58 205 2.0 4.0 0.00 0.00 0.00 60 1006.6
20260505062107 58 76 2.0 2.0 0.00 0.00 0.00 60 1006.6
20260505061604 58 229 2.0 2.0 0.00 0.00 0.00 60 1006.5
20260505061102 57 225 4.0 4.0 0.00 0.00 0.00 59 1006.5
20260505060559 58 225 1.0 1.0 0.00 0.00 0.00 60 1006.6
20260505060056 58 207 2.0 2.0 0.00 0.00 0.00 60 1006.5
20260505055551 58 225 3.0 3.0 0.00 0.00 0.00 57 1006.6
20260505055048 58 204 3.0 4.0 0.00 0.00 0.00 58 1006.1
20260505054545 57 201 0.0 0.0 0.00 0.00 0.00 61 1006.6
20260505054043 57 155 0.0 1.0 0.00 0.00 0.00 61 1006.5
20260505053540 57 222 5.0 6.0 0.00 0.00 0.00 59 1006.6
20260505053037 57 220 0.0 1.0 0.00 0.00 0.00 60 1006.5
20260505052533 57 143 2.0 2.0 0.00 0.00 0.00 60 1006.6
20260505052031 58 204 0.0 0.0 0.00 0.00 0.00 60 1006.5
20260505051528 58 232 3.0 3.0 0.00 0.00 0.00 58 1006.9
20260505051026 58 352 3.0 3.0 0.00 0.00 0.00 57 1006.7
20260505050524 58 213 2.0 3.0 0.00 0.00 0.00 58 1006.6
20260505041451 58 174 1.0 1.0 0.00 0.00 0.00 57 1006.6
20260505040949 59 145 1.0 1.0 0.00 0.00 0.00 57 1006.5
20260505040446 59 201 2.0 2.0 0.00 0.00 0.00 57 1006.8
20260505035943 59 253 3.0 4.0 0.00 0.00 0.00 56 1006.7
20260505035439 59 178 1.0 1.0 0.00 0.00 0.00 57 1006.7
20260505034936 59 164 0.0 1.0 0.00 0.00 0.00 55 1006.7
20260505034432 59 224 0.0 1.0 0.00 0.00 0.00 56 1006.8
20260505033930 59 186 2.0 3.0 0.00 0.00 0.00 55 1006.4
20260505033426 59 210 2.0 2.0 0.00 0.00 0.00 56 1006.5
20260505032924 60 184 2.0 3.0 0.00 0.00 0.00 55 1006.5
20260505032421 60 279 4.0 6.0 0.00 0.00 0.00 53 1006.8
20260505031918 60 202 2.0 3.0 0.00 0.00 0.00 53 1006.8
20260505031415 60 270 6.0 13.0 0.00 0.00 0.00 53 1006.7
20260505030912 60 274 2.0 3.0 0.00 0.00 0.00 52 1006.8
20260505030408 60 204 2.0 4.0 0.00 0.00 0.00 53 1006.8
20260505025903 60 155 1.0 1.0 0.00 0.00 0.00 54 1006.7
20260505025401 60 314 5.0 7.0 0.00 0.00 0.00 52 1006.7
20260505024900 60 247 3.0 3.0 0.00 0.00 0.00 52 1007.0
20260505024357 60 232 3.0 4.0 0.00 0.00 0.00 52 1006.9
20260505023853 60 201 1.0 2.0 0.00 0.00 0.00 53 1007.0
20260505023351 60 224 6.0 8.0 0.00 0.00 0.00 52 1007.0
20260505022848 60 205 2.0 3.0 0.00 0.00 0.00 52 1007.0
20260505022345 60 206 2.0 3.0 0.00 0.00 0.00 54 1007.0
20260505021842 60 173 1.0 1.0 0.00 0.00 0.00 54 1007.3
20260505021338 59 144 1.0 1.0 0.00 0.00 0.00 55 1007.2
20260505020834 59 178 2.0 2.0 0.00 0.00 0.00 55 1007.4
20260505020330 60 195 1.0 1.0 0.00 0.00 0.00 55 1007.2
20260505015827 60 174 3.0 3.0 0.00 0.00 0.00 54 1007.4
20260505015324 60 183 4.0 6.0 0.00 0.00 0.00 53 1007.4
20260505014821 60 186 1.0 1.0 0.00 0.00 0.00 54 1007.4
20260505014318 60 214 5.0 6.0 0.00 0.00 0.00 53 1007.3
20260505013815 60 204 0.0 0.0 0.00 0.00 0.00 54 1007.4
20260505013312 61 156 0.0 1.0 0.00 0.00 0.00 55 1007.3
20260505012811 60 192 2.0 3.0 0.00 0.00 0.00 53 1007.3
20260505012308 61 171 1.0 2.0 0.00 0.00 0.00 52 1007.4
20260505011803 60 246 2.0 3.0 0.00 0.00 0.00 52 1007.4
20260505011301 60 116 1.0 2.0 0.00 0.00 0.00 52 1007.0
20260505010756 60 161 1.0 2.0 0.00 0.00 0.00 54 1006.9
20260505010253 60 170 1.0 2.0 0.00 0.00 0.00 53 1006.9
20260505005749 60 194 0.0 0.0 0.00 0.00 0.00 52 1006.7
20260505005246 61 290 2.0 2.0 0.00 0.00 0.00 50 1006.5
20260505004743 61 201 1.0 1.0 0.00 0.00 0.00 51 1006.4
20260505004239 61 213 0.0 1.0 0.00 0.00 0.00 52 1006.5
20260505003737 62 209 1.0 1.0 0.00 0.00 0.00 50 1006.5
20260505003234 61 216 2.0 2.0 0.00 0.00 0.00 48 1006.5
20260505002730 61 205 2.0 2.0 0.00 0.00 0.00 50 1006.5
20260505002228 62 168 1.0 1.0 0.00 0.00 0.00 51 1006.4
20260505001725 62 202 1.0 2.0 0.00 0.00 0.00 50 1006.4
20260505001223 63 206 2.0 2.0 0.00 0.00 0.00 47 1006.2
20260505000720 63 224 2.0 2.0 0.00 0.00 0.00 48 1006.2
20260505000218 62 205 2.0 3.0 0.00 0.00 0.00 47 1006.0
20260504235714 63 206 1.0 1.0 0.00 0.00 0.00 48 1005.9
20260504235210 63 99 4.0 4.0 0.00 0.00 0.00 46 1005.8
20260504234708 63 227 4.0 6.0 0.00 0.00 0.00 47 1005.9
20260504234204 64 192 0.0 1.0 0.00 0.00 0.00 47 1005.8
20260504233700 64 86 1.0 2.0 0.00 0.00 0.00 45 1005.8
20260504233156 65 182 1.0 2.0 0.00 0.00 0.00 46 1005.5
20260504232654 65 123 3.0 4.0 0.00 0.00 0.00 43 1005.6
20260504232151 65 180 0.0 1.0 0.00 0.00 0.00 44 1005.6
20260504231648 66 152 0.0 1.0 0.00 0.00 0.00 44 1005.5
20260504231144 66 221 1.0 2.0 0.00 0.00 0.00 43 1005.5